Alexandria, LA

4:31 PM CST on December 08, 2016 (GMT -0600)
Alexandria International

Weather History for KAEX - December, 2012

Change the Weather History Date:

Friday, December 28, 2012

  Actual Average Record
Temperature  
Mean Temperature 51 °F 49 °F  
Max Temperature 60 °F 59 °F 79 °F (1954)
Min Temperature 42 °F 40 °F 18 °F (1925)
Degree Days  
Heating Degree Days 14 16  
Month to date heating degree days 270 417  
Since 1 July heating degree days 637 742  
Growing Degree Days 1 (Base 50)    
Moisture  
Dew Point 49 °F    
Average Humidity 88    
Maximum Humidity 100    
Minimum Humidity 76    
Precipitation  
Precipitation 0.89 in 0.15 in 2.73 in (1934)
Month to date precipitation 5.80 5.74  
Year to date precipitation 53.77 55.54  
Snow  
Snow 0.00 in - T in (1967)
Month to date snowfall 0.0  
Since 1 July snowfall 0.0  
Snow Depth 0.00 in    
Sea Level Pressure  
Sea Level Pressure 29.87 in    
Wind  
Wind Speed 11 mph (ESE)    
Max Wind Speed 23 mph    
Max Gust Speed 31 mph    
Visibility 7 miles    
Events Rain    
T = Trace of Precipitation, MM = Missing Value Source: NWS Daily Summary

Daily Weather History Graph

Daily Weather History Graph

Search for Another Location

Airport or City:

Trip Planner

Search our weather history database for the weather conditions in past years. The results will help you decide how hot, cold, wet, or windy it might be!

Date:

Astronomy

Dec. 28, 2012 Rise Set
Actual Time 7:08 AM CST 5:16 PM CST
Civil Twilight 6:41 AM CST 5:42 PM CST
Nautical Twilight 6:11 AM CST 6:13 PM CST
Astronomical Twilight 5:41 AM CST 6:42 PM CST
Moon 5:49 PM CST (12/28) 7:06 AM CST (12/28)
Length of Visible Light 11h 01m
Length of Day
10h 07m
Full, 100% of the Moon is Illuminated
Dec 28
Full
Jan 4
Last Quarter
Jan 11
New
Jan 18
First Quarter
Jan 26
Full

Hourly Weather History & Observations

Time (CST) Temp. Windchill Dew Point Humidity Pressure Visibility Wind Dir Wind Speed Gust Speed Precip Events Conditions
12:53 AM 46.0 °F 41.9 °F 39.9 °F 79% 29.94 in 10.0 mi ESE 8.1 mph - N/A   Overcast
1:53 AM 46.9 °F - 42.1 °F 83% 29.91 in 10.0 mi ESE 10.4 mph - N/A   Overcast
2:53 AM 48.0 °F - 43.0 °F 83% 29.91 in 10.0 mi ESE 6.9 mph - N/A   Overcast
3:53 AM 48.9 °F - 45.0 °F 86% 29.88 in 9.0 mi ESE 8.1 mph - N/A   Mostly Cloudy
5:30 AM 50.0 °F - 48.2 °F 94% 29.84 in 1.8 mi SE 18.4 mph - 0.17 in Rain Heavy Rain
5:39 AM 50.0 °F - 50.0 °F 100% 29.84 in 3.0 mi ESE 15.0 mph - 0.18 in Rain Light Rain
5:47 AM 50.0 °F - 50.0 °F 100% 29.83 in 7.0 mi ESE 13.8 mph - 0.18 in   Overcast
5:53 AM 50.0 °F - 50.0 °F 100% 29.84 in 7.0 mi SE 13.8 mph - 0.18 in   Overcast
6:53 AM 53.1 °F - 52.0 °F 96% 29.85 in 8.0 mi SE 5.8 mph - 0.05 in Rain Light Rain
7:50 AM 53.6 °F - 53.6 °F 100% 29.82 in 2.0 mi SSE 12.7 mph 18.4 mph 0.19 in Rain Heavy Rain
7:53 AM 54.0 °F - 53.1 °F 97% 29.85 in 2.5 mi SW 11.5 mph 18.4 mph 0.19 in Rain Rain
8:00 AM 53.6 °F - 53.6 °F 100% 29.84 in 9.0 mi Variable 3.5 mph 18.4 mph 0.00 in Rain Light Rain
8:17 AM 53.6 °F - 53.6 °F 100% 29.84 in 3.0 mi Calm Calm - 0.04 in Rain Rain
8:38 AM 53.6 °F - 53.6 °F 100% 29.83 in 2.0 mi ESE 6.9 mph - 0.10 in Rain Heavy Rain
8:50 AM 55.4 °F - 55.4 °F 100% 29.82 in 1.8 mi ESE 6.9 mph - 0.16 in Rain Heavy Rain
8:53 AM 55.0 °F - 55.0 °F 100% 29.86 in 1.5 mi South 6.9 mph - 0.19 in Rain Heavy Rain
9:19 AM 55.4 °F - 55.4 °F 100% 29.81 in 2.5 mi ENE 8.1 mph - 0.22 in Rain Heavy Rain
9:30 AM 55.4 °F - 55.4 °F 100% 29.83 in 5.0 mi SE 6.9 mph - 0.23 in Rain Light Rain
9:38 AM 55.4 °F - 55.4 °F 100% 29.83 in 3.0 mi East 5.8 mph - 0.24 in Rain Heavy Rain
9:53 AM 55.9 °F - 55.0 °F 97% 29.83 in 4.0 mi ESE 6.9 mph - 0.25 in Rain Light Rain
10:06 AM 55.4 °F - 55.4 °F 100% 29.81 in 5.0 mi ESE 3.5 mph - 0.00 in   Overcast
10:53 AM 57.0 °F - 57.0 °F 100% 29.81 in 5.0 mi East 5.8 mph - 0.01 in Rain Light Rain
11:03 AM 57.2 °F - 57.2 °F 100% 29.79 in 6.0 mi East 4.6 mph - 0.00 in   Overcast
11:09 AM 57.2 °F - 57.2 °F 100% 29.79 in 7.0 mi ESE 3.5 mph - 0.00 in   Overcast
11:53 AM 59.0 °F - 59.0 °F 100% 29.78 in 9.0 mi SSE 3.5 mph - 0.00 in   Overcast
12:53 PM 59.0 °F - 57.9 °F 96% 29.75 in 4.0 mi NW 6.9 mph - 0.00 in   Overcast
1:53 PM 52.0 °F - 52.0 °F 100% 29.75 in 6.0 mi WNW 9.2 mph - N/A   Overcast
2:53 PM 50.0 °F - 48.9 °F 96% 29.79 in 10.0 mi WNW 12.7 mph - N/A   Overcast
3:31 PM 50.0 °F - 48.2 °F 94% 29.80 in 10.0 mi NW 12.7 mph - N/A   Overcast
3:53 PM 48.9 °F - 48.0 °F 97% 29.83 in 8.0 mi NW 13.8 mph - N/A   Overcast
4:53 PM 48.0 °F - 46.0 °F 93% 29.87 in 10.0 mi WNW 15.0 mph 26.5 mph N/A   Overcast
5:53 PM 46.0 °F 39.3 °F 44.1 °F 93% 29.92 in 10.0 mi NW 16.1 mph - N/A   Overcast
6:00 PM 46.4 °F 39.5 °F 44.6 °F 93% 29.91 in 10.0 mi NW 17.3 mph 23.0 mph N/A   Overcast
6:53 PM 46.0 °F 39.0 °F 43.0 °F 89% 29.94 in 10.0 mi WNW 17.3 mph 26.5 mph N/A   Overcast
7:05 PM 46.4 °F 39.5 °F 42.8 °F 87% 29.94 in 10.0 mi NW 17.3 mph 29.9 mph N/A   Overcast
7:53 PM 44.1 °F 36.8 °F 39.9 °F 85% 30.00 in 10.0 mi WNW 16.1 mph 25.3 mph N/A   Overcast
8:53 PM 43.0 °F 35.7 °F 39.0 °F 86% 30.03 in 10.0 mi NW 15.0 mph 24.2 mph N/A   Overcast
9:53 PM 43.0 °F 37.2 °F 39.0 °F 86% 30.06 in 10.0 mi NW 10.4 mph - N/A   Overcast
10:53 PM 43.0 °F 37.2 °F 39.0 °F 86% 30.08 in 10.0 mi NW 10.4 mph - N/A   Overcast
11:53 PM 42.1 °F 35.2 °F 36.0 °F 79% 30.09 in 10.0 mi NNW 12.7 mph 23.0 mph N/A   Overcast